Location: Austin
(30.3000°N, 97.7500°W)
Time: 01:07:27
(UTC-05:00)

SL-16 R/B - Pass Details

Date: 15 April 2025
Orbit: 841 x 844 km, 71.0° (Epoch: 16 July)

Event Time Altitude Azimuth Distance (km) Brightness Sun altitude
Rises 22:06:40 0° 204° (SSW) 3,381 5.3 -26.4°
Reaches altitude 10° 22:09:07 10° 207° (SSW) 2,449 4.5 -26.9°
Maximum altitude 22:14:43 70° 290° (WNW) 894 2.4 -27.9°
Drops below altitude 10° 22:20:20 10° 14° (NNE) 2,460 4.8 -28.9°
Sets 22:22:48 0° 17° (NNE) 3,398 5.6 -29.4°
